FW2521 Weather Reports


Display with metric or nautical units.
time (UTC)temp
F
wind
direction
speed
MPH
gust
MPH
rain 1hr
in
rain 24hr
in
rain mn
in
humidity
%
barometer
mb
20260906034601 72 213 0.0 0.0 0.00 0.24 0.01 68 1011.9
20260906033050 72 213 0.0 0.0 0.00 0.24 0.01 67 1011.7
20260906031553 72 213 0.0 0.0 0.00 0.24 0.01 67 1011.8
20260906030052 72 213 0.0 0.0 0.00 0.24 0.01 67 1011.8
20260906024547 72 213 0.0 0.0 0.00 0.24 0.01 66 1011.9
20260906023050 72 213 0.0 0.0 0.00 0.24 0.01 66 1011.5
20260906021600 72 213 0.0 0.0 0.00 0.24 0.01 65 1011.1
20260906020055 73 213 0.0 0.0 0.00 0.24 0.01 64 1011.0
20260906014555 73 213 0.0 0.0 0.00 0.24 0.01 63 1011.1
20260906013045 73 213 0.0 0.0 0.00 0.24 0.01 62 1010.9
20260906011547 73 213 0.0 0.0 0.00 0.24 0.01 61 1010.9
20260906010045 73 213 0.0 0.0 0.00 0.24 0.01 59 1010.9
20260906004545 74 214 0.0 0.0 0.00 0.24 0.01 59 1010.9
20260906003046 74 214 0.0 0.0 0.01 0.24 0.01 59 1010.7
20260906001544 75 214 0.0 0.0 0.01 0.24 0.01 59 1010.5
20260906000044 75 213 0.0 0.0 0.01 0.24 0.01 60 1010.4
20260905234542 76 213 0.0 1.0 0.01 0.24 0.01 61 1010.2
20260905233044 77 14 0.0 0.0 0.01 0.24 0.01 62 1010.1
20260905231543 78 296 0.0 0.0 0.00 0.23 0.00 62 1009.9
20260905230050 79 296 0.0 3.0 0.00 0.23 0.00 59 1009.8
20260905224546 79 318 2.0 4.0 0.00 0.23 0.00 58 1009.8
20260905223044 79 330 1.0 4.0 0.00 0.23 0.00 58 1009.6
20260905221546 78 340 0.0 2.0 0.00 0.23 0.00 57 1009.8
20260905220035 77 300 0.0 3.0 0.00 0.23 0.00 58 1009.7
20260905214534 77 331 2.0 4.0 0.00 0.23 0.00 57 1009.9
20260905213034 75 304 2.0 6.0 0.00 0.23 0.00 57 1010.1
20260905211540 74 320 2.0 5.0 0.00 0.23 0.00 57 1010.3
20260905210025 73 310 2.0 5.0 0.00 0.23 0.00 66 1010.5
20260905204523 72 321 2.0 4.0 0.00 0.23 0.00 65 1011.3
20260905203028 71 350 2.0 4.0 0.00 0.23 0.00 65 1011.0
20260905201521 71 89 0.0 3.0 0.06 0.23 0.00 59 1011.0
20260905200021 71 17 1.0 4.0 0.23 0.23 0.00 58 1011.3
20260905194519 71 113 0.0 3.0 0.23 0.23 0.00 58 1010.4
20260905193016 71 225 3.0 5.0 0.23 0.23 0.00 59 1011.0
20260905191513 72 146 1.0 16.0 0.22 0.22 0.22 61 1011.0
20260905190010 82 325 17.0 25.0 0.01 0.01 0.01 46 1012.7
20260905184509 91 329 10.0 22.0 0.00 0.00 0.00 34 1010.7
20260905183009 94 256 0.0 5.0 0.00 0.00 0.00 38 1010.2
20260905181507 94 302 1.0 4.0 0.00 0.00 0.00 39 1010.1
20260905180006 94 46 2.0 5.0 0.00 0.00 0.00 38 1010.4
20260905174504 94 26 2.0 5.0 0.00 0.00 0.00 38 1011.0
20260905173000 94 286 3.0 4.0 0.00 0.00 0.00 39 1011.3
20260905171606 93 60 2.0 6.0 0.00 0.00 0.00 38 1011.6
20260905170100 93 355 2.0 5.0 0.00 0.00 0.00 42 1011.8
20260905170002 93 344 2.0 5.0 0.00 0.00 0.00 41 1011.8
20260905164600 93 296 1.0 5.0 0.00 0.00 0.00 43 1012.0
20260905163058 92 58 2.0 5.0 0.00 0.00 0.00 43 1012.2
20260905161601 92 327 2.0 4.0 0.00 0.00 0.00 43 1012.4
20260905160057 91 355 2.0 6.0 0.00 0.00 0.00 45 1012.6
20260905154559 90 17 1.0 5.0 0.00 0.00 0.00 47 1012.6
20260905153057 89 342 1.0 4.0 0.00 0.00 0.00 49 1012.5
20260905151557 87 322 3.0 6.0 0.00 0.00 0.00 52 1012.6
20260905150057 86 314 1.0 5.0 0.00 0.00 0.00 53 1012.8
20260905144558 85 312 1.0 5.0 0.00 0.00 0.00 56 1012.7
20260905143056 85 294 1.0 5.0 0.00 0.00 0.00 56 1012.7
20260905141556 85 240 1.0 4.0 0.00 0.00 0.00 56 1012.8
20260905140054 83 223 1.0 3.0 0.00 0.00 0.00 56 1012.8
20260905134558 81 294 0.0 3.0 0.00 0.00 0.00 55 1012.8
20260905133055 80 320 3.0 4.0 0.00 0.00 0.00 55 1013.1
20260905131556 80 300 1.0 3.0 0.00 0.00 0.00 55 1013.1
20260905130055 79 159 1.0 4.0 0.00 0.00 0.00 55 1013.1
20260905124554 79 178 1.0 3.0 0.00 0.00 0.00 55 1013.2
20260905123054 78 194 0.0 2.0 0.00 0.00 0.00 54 1013.1
20260905121554 76 229 0.0 0.0 0.00 0.00 0.00 58 1013.0
20260905120055 75 229 0.0 1.0 0.00 0.00 0.00 59 1012.7
20260905114608 73 155 0.0 0.0 0.00 0.00 0.00 60 1012.7
20260905113052 73 155 0.0 0.0 0.00 0.00 0.00 59 1012.4
20260905111606 73 155 0.0 0.0 0.00 0.00 0.00 58 1012.3
20260905110055 73 155 0.0 0.0 0.00 0.00 0.00 58 1011.8
20260905104552 73 155 0.0 0.0 0.00 0.00 0.00 58 1011.7
20260905103051 73 155 0.0 0.0 0.00 0.00 0.00 58 1011.5
20260905101550 74 155 0.0 0.0 0.00 0.00 0.00 58 1011.4
20260905100050 74 155 0.0 0.0 0.00 0.00 0.00 58 1011.4
20260905094600 74 155 0.0 0.0 0.00 0.00 0.00 58 1011.4
20260905093048 74 155 0.0 0.0 0.00 0.00 0.00 58 1011.6
20260905091549 74 155 0.0 0.0 0.00 0.00 0.00 58 1011.3
20260905090044 74 155 0.0 0.0 0.00 0.00 0.00 58 1011.4
20260905084546 75 155 0.0 0.0 0.00 0.00 0.00 58 1011.6
20260905083043 75 155 0.0 0.0 0.00 0.00 0.00 58 1011.7
20260905081544 75 155 0.0 0.0 0.00 0.00 0.00 57 1011.8
20260905080052 75 155 0.0 0.0 0.00 0.00 0.00 58 1011.9
20260905074540 75 155 0.0 0.0 0.00 0.00 0.00 58 1012.1
20260905073045 75 155 0.0 0.0 0.00 0.00 0.00 58 1012.1
20260905071541 75 155 0.0 0.0 0.00 0.00 0.00 59 1012.2
20260905070045 76 155 0.0 0.0 0.00 0.00 0.00 59 1012.5
20260905064538 76 155 0.0 0.0 0.00 0.00 0.00 60 1012.6
20260905063036 77 155 0.0 0.0 0.00 0.00 0.00 61 1012.9
20260905061550 77 155 0.0 0.0 0.00 0.00 0.00 62 1013.0
20260905060030 78 155 0.0 0.0 0.00 0.00 0.00 62 1012.9
20260905054529 78 155 0.0 0.0 0.00 0.00 0.00 62 1013.2
20260905053028 78 155 0.0 0.0 0.00 0.00 0.00 62 1013.2
20260905051533 78 155 0.0 0.0 0.00 0.00 0.00 62 1013.2
20260905050026 79 155 0.0 0.0 0.00 0.00 0.00 62 1013.4
20260905044527 79 155 0.0 0.0 0.00 0.00 0.00 61 1013.5
20260905043044 80 155 0.0 0.0 0.00 0.00 0.00 60 1013.6
20260905041524 80 155 0.0 0.0 0.00 0.00 0.00 60 1013.5